Regional Weather Roundup
Issued by NWS

Home | Current Version | Previous Version | Graphics & Text | Print | Product List | Glossary On
Versions: 1 2 3 4 5 6 7 8 9 10 11 12 13 14 15 16 17 18 19 20 21 22 23 24 25 26 27 28 29 30 31 32 33 34 35 36 37 38 39 40 41 42 43 44 45 46 47 48 49 50
000
ASUS43 KFSD 240410
RWRSD

WEATHER ROUNDUP FOR SOUTH DAKOTA
NATIONAL WEATHER SERVICE SIOUX FALLS SD
1100 PM CDT FRI JUN 23 2017

NOTE: "FAIR" INDICATES FEW OR NO CLOUDS BELOW 12,000 FEET WITH NO
SIGNIFICANT WEATHER AND/OR OBSTRUCTIONS TO VISIBILITY.


SDZ001>005-009-010-012>017-240500-
NORTHWEST AND NORTH CENTRAL SOUTH DAKOTA

CITY           SKY/WX    TMP DP  RH WIND       PRES   REMARKS
BUFFALO          N/A     56  29  35 NW13      30.15R
FAITH            N/A     52  32  46 NW8       30.18R
MOBRIDGE       CLEAR     52  38  58 N6        30.11R
$$

SDZ012>016-024>037-041>051-057-063-072>074-240500-
SOUTHWEST AND SOUTH CENTRAL SOUTH DAKOTA

CITY           SKY/WX    TMP DP  RH WIND       PRES   REMARKS
RAPID CTY ARPT CLEAR     49  28  44 NW10      30.23R
PIERRE         CLEAR     56  38  50 N8        30.13R
CUSTER         CLEAR     50  24  36 NW5       30.31R
ELLSWORTH AFB  CLEAR     50  28  41 NW8       30.23R
PHILIP         CLEAR     49  32  52 NW8       30.18R
PINE RIDGE     CLEAR     49  37  63 E6        30.24R
SPEARFISH      FAIR      52  30  43 W3        30.26R
WINNER         FAIR      56  35  45 W5        30.16R
$$

SDZ004>011-016>023-039-040-240500-
NORTHEAST SOUTH DAKOTA

CITY           SKY/WX    TMP DP  RH WIND       PRES   REMARKS
ABERDEEN       CLEAR     53  40  61 NW9       30.10R
WATERTOWN      CLEAR     56  42  59 NW13      30.06R
BROOKINGS      CLEAR     51  42  71 NW8       30.07R
SISSETON         N/A     56  41  57 W10       30.03R
$$

SDZ017-020-022-023-036>040-048>070-240500-
SOUTHEAST SOUTH DAKOTA

CITY           SKY/WX    TMP DP  RH WIND       PRES   REMARKS
SIOUX FALLS    PTCLDY    54  44  69 W7        30.08R
HURON          CLEAR     50  44  80 NW5       30.10R
CHAMBERLAIN    CLEAR     59  41  51 NW3       30.14R
MITCHELL       CLEAR     58  40  51 W6        30.11R
YANKTON        CLEAR     57  42  57 NW8       30.12R
$$

ABBREVIATIONS USED IN REMARKS
   TC - TEMPERATURE IN CELSIUS
  WCI - WIND CHILL INDEX
   HX - HEAT INDEX
  VSB - VISIBILITY





USA.gov is the U.S. government's official web portal to all federal, state and local government web resources and services.